Location: *
(40.9167°N, 9.5000°E)
Time: 01:32:54
(UTC+00:00)

ATLAS 2AS CENTAUR R/B - Pass Details

Date: 09 April 2020
Orbit: 931 x 1280 km, 63.7° (Epoch: 31 May)

Event Time Altitude Azimuth Distance (km) Brightness Sun altitude
Rises 18:07:20 0° 327° (NNW) 4,181 6.6 -3.0°
Reaches altitude 10° 18:10:21 10° 333° (NNW) 3,173 5.8 -3.5°
Maximum altitude 18:17:40 48° 47° (NE) 1,473 3.3 -4.9°
Drops below altitude 10° 18:24:22 10° 120° (ESE) 2,919 4.4 -6.1°
Enters shadow 18:25:27 - 123° (ESE) 3,283 4.6 -6.3°
